User: anonymous   Login
Location: Mentone
(34.5413°N, 85.5351°W)
Time: 03:42:59
(UTC-05:00)
Language:

A-11 Canister half - Orbit

View from above orbital plane
View from above orbital plane
View from above satellite
View from above satellite

Ground track
Ground track

The orbit data is extracted from the following two-line orbital elements,

1 00053U 60009E   14296.78057881 -.00000086  00000-0  00000+0 0  5911
2 00053 047.2730 142.5437 0100103 103.1443 025.3535 12.17151159417211
Epoch (UTC): 23 October 2014 18:44:02
Eccentricity: 0.0100103
inclination: 47.2730°
perigee height: 1525 km
apogee height: 1685 km
right ascension of ascending node: 142.5437°
argument of perigee: 103.1443°
revolutions per day: 12.17151159
mean anomaly at epoch: 25.3535°
orbit number at epoch: 41721

The dashed part of the orbit path shows where the satellite is in the earth's shadow,  

DLR